FW5836 Weather Reports


time (UTC)temp
C
wind
direction
speed
KPH
gust
KPH
rain 1hr
cm
rain 24hr
cm
rain mn
cm
humidity
%
barometer
mb
20260507050816 15 0.0 0.0 0.25 0.58 0.25 99 1010.5
20260507045837 15 113 1.6 4.8 0.00 0.33 0.00 99 1010.5
20260507044819 15 0.0 0.0 0.00 0.33 0.00 98 1010.3
20260507043820 15 1.6 4.8 0.00 0.33 0.00 97 1010.3
20260507042821 16 0 1.6 3.2 0.00 0.33 0.00 95 1010.2
20260507041823 16 119 1.6 3.2 0.00 0.33 0.00 96 1010.1
20260507040825 16 270 1.6 3.2 0.00 0.33 0.00 96 1010.0
20260507035826 16 135 1.6 4.8 0.00 0.33 0.33 95 1010.2
20260507034828 16 248 0.0 3.2 0.00 0.33 0.33 94 1010.1
20260507033829 16 45 1.6 6.4 0.00 0.33 0.33 93 1010.1
20260507032830 17 353 1.6 4.8 0.00 0.33 0.33 93 1009.9
20260507031823 17 0.0 3.2 0.00 0.33 0.33 92 1009.6
20260507030838 17 158 1.6 4.8 0.00 0.33 0.33 92 1009.7
20260507025851 17 350 3.2 6.4 0.00 0.33 0.33 93 1009.5
20260507024854 18 0 1.6 4.8 0.00 0.33 0.33 99 1009.2
20260507023836 18 0.0 0.0 0.00 0.33 0.33 99 1009.2
20260507022857 18 0.0 0.0 0.00 0.33 0.33 99 1009.1
20260507021818 18 0.0 3.2 0.00 0.33 0.33 99 1009.3
20260507020819 18 0.0 0.0 0.00 0.33 0.33 99 1009.3
20260507015821 18 0.0 0.0 0.00 0.33 0.33 99 1009.5
20260507014821 18 0.0 0.0 0.00 0.33 0.33 99 1009.5
20260507013825 18 0.0 0.0 0.00 0.33 0.33 99 1009.5
20260507012824 18 0.0 0.0 0.00 0.33 0.33 99 1009.3
20260507011846 18 0.0 0.0 0.00 0.33 0.33 99 1009.2
20260507010827 18 0.0 0.0 0.00 0.33 0.33 99 1009.2
20260507005828 18 0.0 0.0 0.00 0.33 0.33 99 1009.0
20260507004843 18 0.0 0.0 0.00 0.33 0.33 99 1008.8
20260507003829 18 0.0 0.0 0.00 0.33 0.33 99 1008.8
20260507002830 18 0.0 3.2 0.00 0.33 0.33 99 1008.8
20260507001831 18 0.0 0.0 0.00 0.33 0.33 99 1009.0
20260507000815 18 0.0 0.0 0.00 0.33 0.33 99 1008.6
20260506235817 18 0.0 0.0 0.00 0.33 0.33 99 1008.4
20260506234817 19 0.0 0.0 0.00 0.33 0.33 99 1008.4
20260506233819 19 0.0 0.0 0.00 0.33 0.33 99 1008.4
20260506232820 19 0.0 0.0 0.00 0.33 0.33 98 1008.3
20260506231841 20 0.0 0.0 0.00 0.33 0.33 98 1008.4
20260506230822 20 0.0 0.0 0.00 0.33 0.33 97 1008.3
20260506225823 20 0.0 0.0 0.00 0.33 0.33 97 1008.3
20260506224818 20 0.0 0.0 0.00 0.33 0.33 97 1008.3
20260506223823 20 0.0 0.0 0.00 0.33 0.33 96 1008.3
20260506222824 20 0.0 1.6 0.00 0.33 0.33 95 1008.3
20260506221825 20 0.0 0.0 0.00 0.33 0.33 95 1008.2
20260506220826 20 158 1.6 4.8 0.00 0.33 0.33 96 1008.3
20260506215827 20 135 1.6 4.8 0.00 0.33 0.33 96 1008.1
20260506214828 20 158 1.6 4.8 0.00 0.33 0.33 97 1008.1
20260506213829 20 203 1.6 4.8 0.00 0.33 0.33 97 1008.1
20260506212850 20 307 3.2 8.0 0.00 0.33 0.33 96 1008.0
20260506211825 20 161 1.6 4.8 0.00 0.33 0.33 97 1008.0
20260506210820 20 180 0.0 3.2 0.00 0.33 0.33 97 1007.9
20260506205815 20 225 0.0 1.6 0.00 0.33 0.33 96 1008.1
20260506204817 20 180 1.6 4.8 0.00 0.33 0.33 96 1007.9
20260506203815 20 140 3.2 8.0 0.00 0.33 0.33 95 1007.9
20260506202816 20 170 3.2 4.8 0.00 0.33 0.33 95 1007.8
20260506201818 20 131 3.2 4.8 0.00 0.33 0.33 94 1007.8
20260506200819 21 164 1.6 3.2 0.00 0.33 0.33 92 1007.9
20260506195820 21 180 4.8 6.4 0.00 0.33 0.33 90 1007.9
20260506194842 21 153 4.8 9.7 0.00 0.33 0.33 91 1007.9
20260506193823 21 140 3.2 9.7 0.00 0.33 0.33 91 1007.9
20260506192824 20 203 4.8 8.0 0.00 0.33 0.33 91 1008.1
20260506191905 20 143 4.8 6.4 0.00 0.33 0.33 95 1008.4
20260506190826 20 164 3.2 6.4 0.00 0.33 0.33 98 1008.6
20260506185826 19 139 3.2 3.2 0.00 0.33 0.33 99 1008.6
20260506184841 18 158 4.8 4.8 0.00 0.33 0.33 99 1008.6
20260506183830 18 149 4.8 6.4 0.00 0.33 0.33 99 1008.6
20260506182832 18 131 4.8 4.8 0.00 0.33 0.33 99 1008.7
20260506181815 18 151 3.2 6.4 0.00 0.33 0.33 99 1008.9
20260506180816 18 135 6.4 8.0 0.00 0.33 0.33 99 1008.9
20260506175817 17 152 1.6 6.4 0.00 0.33 0.33 99 1008.9
20260506174819 17 150 3.2 4.8 0.00 0.33 0.33 99 1009.1
20260506173820 17 132 4.8 8.0 0.00 0.33 0.33 99 1009.1
20260506172822 17 184 4.8 12.9 0.00 0.33 0.33 99 1009.0
20260506171822 17 162 4.8 9.7 0.00 0.33 0.33 99 1009.0
20260506170823 16 143 3.2 4.8 0.00 0.33 0.33 99 1009.3
20260506165824 16 171 3.2 9.7 0.00 0.33 0.33 99 1009.4
20260506164819 16 123 6.4 9.7 0.03 0.33 0.33 99 1009.4
20260506163826 16 189 1.6 8.0 0.03 0.33 0.33 99 1009.4
20260506162827 16 153 8.0 11.3 0.03 0.33 0.33 99 1009.5
20260506161828 16 130 4.8 6.4 0.08 0.33 0.33 99 1009.5
20260506160830 16 154 3.2 8.0 0.13 0.33 0.33 99 1009.8
20260506155831 16 118 4.8 12.9 0.15 0.33 0.33 99 1009.6
20260506154852 16 197 6.4 8.0 0.15 0.30 0.30 99 1010.1
20260506153835 16 1.6 8.0 0.15 0.30 0.30 99 1010.1
20260506152816 16 180 3.2 8.0 0.18 0.30 0.30 99 1010.2
20260506151817 16 149 8.0 11.3 0.15 0.25 0.25 99 1010.3
20260506150818 16 149 4.8 11.3 0.15 0.20 0.20 99 1010.4
20260506145820 16 168 3.2 4.8 0.15 0.18 0.18 99 1010.1
20260506144836 16 154 4.8 11.3 0.15 0.15 0.15 99 1010.2
20260506143819 16 113 1.6 6.4 0.15 0.15 0.15 99 1010.2
20260506142820 16 180 1.6 3.2 0.13 0.13 0.13 99 1010.1
20260506141821 16 173 4.8 8.0 0.10 0.10 0.10 99 1010.5
20260506140823 16 225 0.0 3.2 0.05 0.05 0.05 99 1010.7
20260506135824 17 236 3.2 4.8 0.03 0.03 0.03 99 1010.4
20260506134825 17 189 3.2 6.4 0.00 0.00 0.00 98 1010.5
20260506133821 17 182 3.2 11.3 0.00 0.00 0.00 97 1010.5
20260506132822 17 180 1.6 4.8 0.00 0.00 0.00 94 1010.2
20260506131823 18 150 3.2 6.4 0.00 0.00 0.00 94 1010.1
20260506130823 18 191 6.4 9.7 0.00 0.00 0.00 94 1010.2
20260506125824 17 195 4.8 8.0 0.00 0.00 0.00 95 1010.3
20260506124819 17 124 4.8 11.3 0.00 0.00 0.00 95 1010.5
20260506123825 17 198 3.2 8.0 0.00 0.00 0.00 94 1010.6
20260506122826 17 135 3.2 8.0 0.00 0.00 0.00 92 1010.6
20260506121828 18 162 4.8 11.3 0.00 0.00 0.00 92 1010.5
20260506120829 18 154 1.6 6.4 0.00 0.00 0.00 91 1010.5
20260506115830 18 141 4.8 8.0 0.00 0.00 0.00 91 1010.2
20260506114832 18 180 4.8 8.0 0.00 0.00 0.00 91 1010.2
20260506113833 18 162 6.4 8.0 0.00 0.00 0.00 92 1010.2
20260506112816 18 167 3.2 8.0 0.00 0.00 0.00 91 1010.1
20260506111817 18 165 3.2 9.7 0.00 0.00 0.00 92 1009.9
20260506110819 18 148 4.8 8.0 0.00 0.00 0.00 92 1010.0
20260506105820 18 181 9.7 12.9 0.00 0.00 0.00 92 1009.8
20260506104815 17 180 1.6 3.2 0.00 0.00 0.00 93 1009.8
20260506103820 17 176 6.4 9.7 0.00 0.00 0.00 93 1009.8
20260506102821 17 157 4.8 6.4 0.00 0.00 0.00 92 1009.6
20260506101822 17 124 1.6 8.0 0.00 0.00 0.00 92 1009.8
20260506100843 17 131 9.7 14.5 0.00 0.00 0.00 92 1009.7
20260506095825 17 141 3.2 6.4 0.00 0.00 0.00 92 1009.7
20260506094826 17 189 6.4 12.9 0.00 0.00 0.00 91 1009.7
20260506093847 18 162 4.8 9.7 0.00 0.00 0.00 91 1009.7
20260506092849 18 152 4.8 9.7 0.00 0.00 0.00 91 1009.7
20260506091844 18 143 3.2 6.4 0.00 0.00 0.00 92 1009.8
20260506090819 18 137 6.4 11.3 0.00 0.00 0.00 92 1009.9
20260506085815 18 158 1.6 6.4 0.00 0.00 0.00 91 1010.0
20260506084837 18 163 3.2 6.4 0.00 0.00 0.00 91 1009.9
20260506083830 18 156 6.4 9.7 0.00 0.00 0.00 91 1009.9
20260506082832 18 123 4.8 6.4 0.00 0.00 0.00 90 1009.8
20260506081835 18 113 1.6 4.8 0.00 0.00 0.00 88 1009.7
20260506080817 18 158 1.6 3.2 0.00 0.00 0.00 87 1009.8
20260506072921 20 155 6.4 8.0 0.00 0.00 0.00 84 1010.0
20260506071822 20 142 4.8 8.0 0.00 0.00 0.00 84 1010.0
20260506070818 20 186 1.6 3.2 0.00 0.00 0.00 84 1010.1
20260506061837 20 143 6.4 9.7 0.00 0.00 0.00 82 1010.3
20260506060819 20 150 3.2 6.4 0.00 0.00 0.00 81 1010.4